Probability
1 0 0 0 0 0 0 0 0 0 0 0 0 0 0 0 0 0 0 0 0 0 0 0 0 0 0 0 0 0 0 0 0 0 0 0 0 0 0 0 0 0 0
2 1 0 0 0 0 0 0 0 0 0 0 0 0 0 0 0 0 0 0 0 0 0 0 0 0 0 0 0 0 0 0 0 0 0 0 0 0 0 0 0 0 0
2 1 0 0 0 0 0 0 0 0 0 0 0 0 0 0 0 0 0 0 0 0 0 0 0 0 0 0 0 0 0 0 0 0 0 0 0 0 0 0 0 0 0
2 1 0 0 0 0 0 0 0 0 0 0 0 0 0 0 0 0 0 0 0 0 0 0 0 0 0 0 0 0 0 0 0 0 0 0 0 0 0 0 0 0 0
2 1 0 0 0 0 0 0 0 0 0 0 0 0 0 0 0 0 0 0 0 0 0 0 0 0 0 0 0 0 0 0 0 0 0 0 0 0 0 0 0 0 0
1 0 0 0 0 0 0 0 0 0 0 0 0 0 0 0 0 0 0 0 0 0 0 0 0 0 0 0 0 0 0 0 0 0 0 0 0 0 0 0 0 0 0
0 0 0 0 0 0 0 0 0 0 0 0 0 0 0 0 0 0 0 0 0 0 0 0 0 0 0 0 0 0 0 0 0 0 0 0 0 0 0 0 0 0 0
0 0 0 0 0 0 0 0 0 0 0 0 0 0 0 0 0 0 0 0 0 0 0 0 0 0 0 0 0 0 0 0 0 0 0 0 0 0 0 0 0 0 0
0 0 0 0 0 0 0 0 0 0 0 0 0 0 0 0 0 0 0 0 0 0 0 0 0 0 0 0 0 0 0 0 0 0 0 0 0 0 0 0 0 0 0
0 0 0 0 0 0 0 0 0 0 0 0 0 0 0 0 0 0 0 0 0 0 0 0 0 0 0 0 0 0 0 0 0 0 0 0 0 0 0 0 0 0 0
0 0 0 0 0 0 0 0 0 0 0 0 0 0 0 0 0 0 0 0 0 0 0 0 0 0 0 0 0 0 0 0 0 0 0 0 0 0 0 0 0 0 0
0 0 0 0 0 0 0 0 0 0 0 0 0 0 0 0 0 0 0 0 0 0 0 0 0 0 0 0 0 0 0 0 0 0 0 0 0 0 0 0 0 0 0
0 0 0 0 0 0 0 0 0 0 0 0 0 0 0 0 0 0 0 0 0 0 0 0 0 0 0 0 0 0 0 0 0 0 0 0 0 0 0 0 0 0 0
0 0 0 0 0 0 0 0 0 0 0 0 0 0 0 0 0 0 0 0 0 0 0 0 0 0 0 0 0 0 0 0 0 0 0 0 0 0 0 0 0 0 0
0 0 0 0 0 0 0 0 0 0 0 0 0 0 0 0 0 0 0 0 0 0 0 0 0 0 0 0 0 0 0 0 0 0 0 0 0 0 0 0 0 0 0
0 0 0 0 0 0 0 0 0 0 0 0 0 0 0 0 0 0 0 0 0 0 0 0 0 0 0 0 0 0 0 0 0 0 0 0 0 0 0 0 0 0 0
0 0 0 0 0 0 0 0 0 0 0 0 0 0 0 0 0 0 0 0 0 0 0 0 0 0 0 0 0 0 0 0 0 0 0 0 0 0 0 0 0 0 0
0 0 0 0 0 0 0 0 0 0 0 0 0 0 0 0 0 0 0 0 0 0 0 0 0 0 0 0 0 0 0 0 0 0 0 0 0 0 0 0 0 0 0
0 0 0 0 0 0 0 0 0 0 0 0 0 0 0 0 0 0 0 0 0 0 0 0 0 0 0 0 0 0 0 0 0 0 0 0 0 0 0 0 0 0 0
0 0 0 0 0 0 0 0 0 0 0 0 0 0 0 0 0 0 0 0 0 0 0 0 0 0 0 0 0 0 0 0 0 0 0 0 0 0 0 0 0 0 0
0 0 0 0 0 0 0 0 0 0 0 0 0 0 0 0 0 0 0 0 0 0 0 0 0 0 0 0 0 0 0 0 0 0 0 0 0 0 0 0 0 0 0
0 0 0 0 0 0 0 0 0 0 0 0 0 0 0 0 0 0 0 0 0 0 0 0 0 0 0 0 0 0 0 0 0 0 0 0 0 0 0 0 0 0 0
0 0 0 0 0 0 0 0 0 0 0 0 0 0 0 0 0 0 0 0 0 0 0 0 0 0 0 0 0 0 0 0 0 0 0 0 0 0 0 0 0 0 0
0 0 0 0 0 0 0 0 0 0 0 0 0 0 0 0 0 0 0 0 0 0 0 0 0 0 0 0 0 0 0 0 0 0 0 0 0 0 0 0 0 0 0
0 0 0 0 0 0 0 0 0 0 0 0 0 0 0 0 0 0 0 0 0 0 0 0 0 0 0 0 0 0 0 0 0 0 0 0 0 0 0 0 0 0 0
0 0 0 0 0 0 0 0 0 0 0 0 0 0 0 0 0 0 0 0 0 0 0 0 0 0 0 0 0 0 0 0 0 0 0 0 0 0 0 0 0 0 0
Wind_Speed
0 0 1 1 1 1 1 2 2 2 2 2 1 1 1 1 1 0 1 1 1 2 2 1 2 2 2 2 1 1 2 2 3 4 3 3 3 3 3 2 3 3 3
0 0 1 1 1 2 2 2 2 2 2 2 1 1 1 1 1 1 2 1 1 2 3 2 3 2 2 2 1 2 2 3 3 5 4 2 3 3 3 3 3 2 3
0 0 0 1 1 2 2 2 2 2 2 2 2 2 2 2 2 2 2 2 2 2 3 3 3 3 3 3 2 2 2 2 2 3 4 3 2 2 2 2 3 2 3
1 1 0 1 2 2 2 2 2 1 2 2 2 2 3 2 2 2 2 2 2 2 2 3 3 3 4 4 3 3 3 2 2 2 3 3 3 3 2 2 2 2 2
1 1 1 1 1 1 2 2 2 2 2 2 2 3 3 2 2 2 2 2 2 2 3 3 3 4 5 4 3 3 3 2 2 2 2 3 3 2 2 2 3 2 2
1 1 1 1 1 1 2 2 2 2 2 2 2 3 3 3 4 3 2 2 2 2 3 3 3 4 5 5 5 5 4 3 3 3 3 3 4 4 3 2 2 2 2
1 1 1 1 1 2 1 1 1 1 2 2 3 2 3 4 5 4 3 1 1 2 2 3 3 3 4 3 4 5 4 4 6 4 4 5 4 4 3 3 3 3 3
0 1 1 1 1 1 1 1 2 1 1 2 3 3 2 4 5 4 3 2 1 2 2 3 3 4 4 4 4 4 4 4 4 4 5 6 5 5 4 4 3 3 3
1 1 1 1 1 1 1 2 1 1 2 2 2 2 2 4 5 5 3 1 2 3 3 3 3 4 5 4 2 4 5 5 4 4 6 7 7 8 5 3 3 2 3
2 2 1 1 1 1 2 2 1 1 2 2 3 3 2 4 5 5 4 1 2 3 3 3 4 4 5 4 2 3 5 6 5 5 4 4 4 5 7 6 5 4 3
2 1 1 1 1 1 1 1 1 1 2 2 3 4 3 4 5 6 4 1 2 3 3 4 4 6 6 6 4 4 6 7 5 5 5 4 3 3 3 5 5 5 4
1 0 1 1 1 1 1 2 1 1 2 3 3 4 4 3 4 5 5 4 3 3 4 4 5 8 8 8 5 6 7 6 4 4 4 4 3 3 3 4 6 7 7
1 0 1 2 1 1 1 2 2 1 1 3 3 3 4 4 4 5 6 6 5 3 4 7 8 9 8 6 7 8 5 3 3 3 4 4 4 4 3 3 4 5 6
1 1 1 1 2 2 1 1 1 2 2 2 3 3 4 4 4 3 3 3 4 3 4 6 8 7 6 6 6 5 3 3 3 4 4 4 3 3 3 2 3 2 3
1 0 1 1 1 2 2 2 2 3 4 4 4 4 4 5 6 6 4 4 4 4 4 3 3 3 4 4 4 4 3 3 3 4 4 4 4 4 3 2 2 3 3
1 0 1 1 1 1 2 4 4 4 6 7 8 7 6 8 10 10 9 8 8 6 3 3 4 4 5 5 6 5 4 4 4 4 4 4 4 4 4 3 3 3 4
2 2 1 1 1 1 2 2 5 6 6 5 6 7 8 9 9 9 8 8 6 3 2 4 5 5 5 5 5 5 5 5 4 4 4 4 4 4 4 4 3 4 4
2 3 2 2 2 2 2 2 3 3 5 6 6 7 8 8 8 8 7 4 3 1 3 4 5 6 5 5 5 5 5 5 4 4 4 4 4 4 4 4 4 4 4
2 2 2 2 2 2 2 2 3 3 4 5 5 6 7 6 6 6 3 1 3 4 4 5 5 5 5 5 5 5 5 5 5 4 4 5 4 4 4 4 4 5 5
2 3 2 1 2 2 2 3 3 4 4 4 5 5 5 4 4 4 2 3 4 4 5 5 5 5 5 5 4 4 4 4 5 4 4 4 4 4 5 6 5 4 4
2 2 2 1 2 2 3 3 3 4 4 5 5 5 6 4 5 5 5 4 4 5 5 5 5 5 4 4 4 4 5 4 4 4 4 5 5 5 5 5 5 5 5
2 2 1 1 2 2 3 3 3 4 5 6 6 6 6 4 4 5 5 5 4 4 4 4 4 4 4 4 4 4 4 5 5 5 5 5 5 5 5 4 4 4 5
2 2 1 2 2 3 3 3 4 4 5 5 5 5 5 4 4 5 5 5 4 4 3 3 3 4 4 3 3 3 4 5 5 5 6 6 5 5 5 5 6 5 5
2 2 2 2 2 2 3 4 4 5 5 5 5 5 5 4 5 5 5 5 4 4 4 3 3 4 6 4 3 3 4 5 6 5 6 6 6 6 5 5 5 6 5
2 2 2 2 2 3 4 4 4 5 5 4 4 4 5 5 5 5 5 4 5 4 5 4 3 3 5 6 5 5 6 7 6 5 5 5 6 6 6 6 6 6 5
2 2 2 2 3 3 3 4 4 4 4 4 4 4 5 5 5 5 4 4 5 4 5 4 5 6 6 5 6 7 6 7 6 6 5 4 5 5 6 6 7 6 6
Wind_Direction
83 74 58 17 348 339 323 313 315 316 316 297 288 309 313 318 317 300 282 288 296 299 298 290 294 293 286 277 255 241 240 236 258 279 276 281 276 277 289 291 283 271 269
190 86 26 1 349 343 324 316 322 321 320 313 310 309 298 303 289 264 280 290 283 293 298 298 292 296 295 283 257 250 253 243 245 273 285 282 271 268 274 279 281 273 268
125 91 11 337 337 323 313 319 327 330 332 333 327 298 294 296 286 270 263 279 282 282 286 285 286 289 288 283 269 260 263 266 252 260 279 284 279 275 279 283 280 273 272
159 186 263 294 301 299 306 318 320 323 322 320 316 302 293 289 282 273 266 280 291 293 288 282 283 273 269 273 276 269 266 273 272 263 272 281 281 283 271 274 282 271 272
197 245 260 274 300 314 315 321 328 329 316 311 315 312 304 298 283 274 270 275 280 297 306 302 291 285 275 269 265 266 266 266 274 272 274 284 284 279 266 262 265 279 272
210 249 262 278 318 317 312 327 342 337 331 333 317 312 313 316 314 312 296 281 285 291 304 310 305 304 307 300 283 270 252 243 251 259 265 268 275 269 260 254 259 265 271
226 258 278 303 317 310 313 339 331 326 335 333 323 324 323 323 326 327 326 305 295 297 296 304 311 312 314 311 311 311 295 260 241 241 255 258 263 257 251 251 241 245 256
202 270 296 306 309 322 339 331 322 326 328 320 317 321 324 323 333 335 337 345 312 298 287 280 290 305 312 310 313 317 311 297 272 247 248 256 257 253 242 245 247 255 264
226 258 264 247 274 315 321 310 316 336 326 318 316 325 326 321 329 330 337 333 315 309 302 297 287 293 303 312 314 311 313 307 297 270 256 261 258 250 235 228 222 225 256
240 252 258 248 252 278 281 290 310 310 305 319 327 316 308 306 313 322 329 317 309 306 310 306 293 291 302 306 288 293 300 298 309 314 303 290 270 256 234 223 220 218 233
236 247 275 284 276 269 298 303 302 316 329 329 321 315 312 302 307 314 318 300 284 299 306 306 305 309 304 300 284 263 265 279 293 293 295 296 288 260 238 226 219 218 225
163 220 301 314 310 319 315 311 316 334 334 323 321 320 319 312 303 305 309 298 279 276 287 293 296 306 307 300 289 275 276 279 276 281 285 287 287 282 265 243 230 226 231
118 274 306 322 327 324 299 300 315 323 309 306 309 308 309 309 302 296 296 300 301 282 281 284 292 298 302 297 286 287 286 277 270 271 277 277 272 274 278 273 248 234 238
156 293 316 331 328 337 325 290 288 291 290 293 296 297 300 304 301 303 305 306 306 302 301 301 301 295 290 280 289 293 277 260 257 265 271 275 278 274 269 263 261 254 252
184 272 322 332 320 328 324 295 274 264 242 248 265 266 278 291 288 287 288 297 300 300 309 304 306 313 317 311 302 294 285 277 264 260 263 273 276 275 272 258 251 248 245
170 254 275 298 312 317 321 321 301 268 277 260 248 249 262 261 277 290 295 291 292 293 292 288 298 301 301 302 304 303 293 283 276 272 272 268 272 274 278 268 249 250 256
195 222 242 265 280 294 300 308 317 322 318 300 282 272 265 277 286 291 299 306 301 284 261 281 290 294 295 296 294 289 287 292 289 282 279 275 270 272 271 268 261 254 255
204 223 224 244 259 271 278 284 287 301 316 320 316 305 298 292 292 293 297 310 308 280 264 279 286 289 291 292 293 293 292 297 297 295 293 290 281 275 274 266 259 258 262
206 227 230 243 258 268 280 289 290 288 288 296 308 315 315 307 299 300 298 272 290 298 292 286 285 288 290 291 294 297 296 297 300 299 298 296 293 287 283 277 269 259 256
224 237 234 244 273 288 292 295 299 301 303 306 306 306 317 329 326 326 314 285 283 285 288 291 293 294 295 296 298 299 299 300 305 302 299 299 296 289 285 285 281 272 265
227 248 252 255 270 278 289 297 301 304 306 306 302 302 307 307 307 307 305 297 291 292 298 301 303 305 305 305 306 309 308 307 308 305 301 301 302 298 292 286 284 280 276
211 232 243 260 280 291 297 299 301 302 304 305 307 311 316 307 304 306 306 305 303 297 297 297 300 306 310 311 313 314 313 312 313 312 308 304 302 297 295 294 290 285 282
200 215 240 263 277 300 308 306 304 304 305 305 303 307 313 313 309 308 307 307 309 309 309 304 306 316 323 324 327 323 317 313 310 308 306 305 305 302 298 293 293 295 286
195 215 240 268 284 291 295 299 302 303 303 304 306 307 309 311 312 313 314 316 319 321 327 330 328 332 335 337 337 335 331 321 315 305 302 299 300 300 298 292 289 289 287
195 212 229 246 264 277 287 294 299 301 305 307 309 312 312 313 315 316 319 322 325 328 337 342 338 338 339 338 338 335 328 320 314 312 303 296 297 299 302 299 295 293 289
206 221 237 251 263 273 282 292 300 307 310 311 313 314 316 318 320 324 329 334 334 336 338 340 343 345 344 341 338 333 327 324 325 319 309 303 304 305 310 302 300 298 297